CW3518 Weather Reports


time (UTC)temp
F
wind
direction
speed
knots
gust
knots
rain 1hr
in
rain 24hr
in
rain mn
in
humidity
%
barometer
mb
20260831092458 82 213 6.1 9.6 0.00 0.00 0.00 61 1015.0
20260831092028 82 210 7.8 8.7 0.00 0.00 0.00 61 1015.0
20260831091528 82 203 8.7 10.4 0.00 0.00 0.00 61 1014.9
20260831091029 82 195 7.0 10.4 0.00 0.00 0.00 61 1014.8
20260831090528 82 210 7.0 10.4 0.00 0.00 0.00 61 1014.8
20260831090027 82 200 8.7 11.3 0.00 0.00 0.00 61 1014.8
20260831085528 82 209 9.6 11.3 0.00 0.00 0.00 60 1014.8
20260831085027 82 216 9.6 11.3 0.00 0.00 0.00 59 1014.7
20260831084027 82 214 8.7 13.0 0.00 0.00 0.00 58 1014.7
20260831083457 82 212 9.6 10.4 0.00 0.00 0.00 58 1014.7
20260831083027 82 211 7.8 10.4 0.00 0.00 0.00 57 1014.7
20260831082457 82 209 7.0 9.6 0.00 0.00 0.00 57 1014.8
20260831081957 81 196 7.0 7.8 0.00 0.00 0.00 57 1014.9
20260831081457 81 204 6.1 9.6 0.00 0.00 0.00 56 1014.9
20260831080527 80 213 7.8 7.8 0.00 0.00 0.00 57 1014.8
20260831080027 80 231 5.2 5.2 0.00 0.00 0.00 58 1014.9
20260831075027 81 219 4.3 5.2 0.00 0.00 0.00 56 1014.9
20260831074027 82 202 4.3 5.2 0.00 0.00 0.00 55 1014.8
20260831073527 82 203 4.3 5.2 0.00 0.00 0.00 55 1014.8
20260831072527 82 202 6.1 6.1 0.00 0.00 0.00 55 1014.7
20260831072027 82 196 5.2 6.1 0.00 0.00 0.00 56 1014.6
20260831071527 82 169 4.3 6.1 0.00 0.00 0.00 56 1014.6
20260831071027 82 174 5.2 6.1 0.00 0.00 0.00 56 1014.7
20260831070527 82 164 5.2 7.0 0.00 0.00 0.00 56 1014.7
20260831065526 82 157 5.2 6.1 0.00 0.00 0.00 55 1014.8
20260831065026 82 167 5.2 6.1 0.00 0.00 0.00 55 1014.8
20260831064457 82 147 6.1 6.1 0.00 0.00 0.00 55 1014.8
20260831064026 83 151 5.2 7.0 0.00 0.00 0.00 54 1014.8
20260831063526 83 149 6.1 7.8 0.00 0.00 0.00 54 1014.8
20260831063026 83 162 5.2 7.8 0.00 0.00 0.00 53 1014.8
20260831062526 84 160 6.1 7.8 0.00 0.00 0.00 53 1014.8
20260831062026 84 158 7.0 7.8 0.00 0.00 0.00 53 1014.8
20260831061526 84 148 6.1 7.8 0.00 0.00 0.00 53 1014.8
20260831061026 84 152 7.0 7.0 0.00 0.00 0.00 52 1014.8
20260831060526 84 150 6.1 7.0 0.00 0.00 0.00 52 1014.9
20260831060026 84 144 5.2 7.0 0.00 0.00 0.00 51 1014.8
20260831055526 84 147 7.0 7.8 0.00 0.00 0.00 51 1014.8
20260831055026 84 154 6.1 7.8 0.00 0.00 0.00 51 1014.7
20260831054456 85 148 6.1 7.8 0.00 0.00 0.00 50 1014.7
20260831054026 85 158 6.1 7.0 0.00 0.00 0.00 50 1014.7
20260831053026 84 206 4.3 7.8 0.00 0.00 0.00 51 1014.8
20260831052455 84 221 5.2 10.4 0.00 0.00 0.00 51 1014.8
20260831052025 85 167 5.2 10.4 0.00 0.00 0.00 49 1014.6
20260831051525 85 135 8.7 9.6 0.00 0.00 0.00 49 1014.6
20260831051025 85 124 7.8 9.6 0.00 0.00 0.00 48 1014.5
20260831050525 85 127 7.8 8.7 0.00 0.00 0.00 48 1014.5
20260831045025 86 136 6.1 7.0 0.00 0.00 0.00 47 1014.4
20260831044525 86 137 6.1 7.0 0.00 0.00 0.00 46 1014.5
20260831044025 87 144 6.1 6.1 0.00 0.00 0.00 45 1014.5
20260831043525 87 136 5.2 6.1 0.00 0.00 0.00 45 1014.6
20260831043025 87 138 5.2 6.1 0.00 0.00 0.00 45 1014.6
20260831042525 87 139 5.2 6.1 0.00 0.00 0.00 44 1014.6
20260831042025 87 139 4.3 7.0 0.00 0.00 0.00 44 1014.6
20260831041525 88 155 6.1 7.0 0.00 0.00 0.00 44 1014.6
20260831041025 88 153 5.2 6.1 0.00 0.00 0.00 43 1014.7
20260831040524 88 164 5.2 6.1 0.00 0.00 0.00 43 1014.6
20260831035025 88 154 5.2 6.1 0.00 0.00 0.00 43 1014.5
20260831034524 87 139 5.2 6.1 0.00 0.00 0.00 43 1014.4
20260831033524 88 138 6.1 6.1 0.00 0.00 0.00 42 1014.4
20260831032524 88 137 6.1 6.1 0.00 0.00 0.00 41 1014.5
20260831032024 88 143 6.1 7.0 0.00 0.00 0.00 41 1014.5
20260831031524 88 143 5.2 7.8 0.00 0.00 0.00 41 1014.4
20260831031024 88 133 6.1 7.8 0.00 0.00 0.00 40 1014.3
20260831030524 89 126 6.1 7.0 0.00 0.00 0.00 40 1014.2
20260831030024 88 123 6.1 7.0 0.00 0.00 0.00 40 1014.2
20260831025524 88 124 6.1 6.1 0.00 0.00 0.00 40 1014.1
20260831025024 89 133 5.2 6.1 0.00 0.00 0.00 39 1014.1
20260831024524 89 129 6.1 6.1 0.00 0.00 0.00 39 1014.1
20260831024024 89 121 5.2 6.1 0.00 0.00 0.00 38 1014.1
20260831023026 89 129 3.5 6.1 0.00 0.00 0.00 37 1013.9
20260831022524 90 141 4.3 6.1 0.00 0.00 0.00 37 1013.9
20260831022024 90 156 6.1 6.1 0.00 0.00 0.00 37 1013.6
20260831021024 90 156 6.1 6.1 0.00 0.00 0.00 36 1013.5
20260831020024 90 144 5.2 6.1 0.00 0.00 0.00 36 1013.4
20260831015524 90 131 5.2 6.1 0.00 0.00 0.00 36 1013.3
20260831014523 90 132 4.3 6.1 0.00 0.00 0.00 35 1013.2
20260831014024 90 132 5.2 6.1 0.00 0.00 0.00 35 1013.2
20260831013524 91 129 6.1 6.1 0.00 0.00 0.00 34 1013.2
20260831013024 91 142 5.2 6.1 0.00 0.00 0.00 33 1013.1
20260831012523 92 144 6.1 6.1 0.00 0.00 0.00 33 1013.1
20260831011524 92 135 4.3 7.0 0.00 0.00 0.00 33 1013.1
20260831011023 92 139 6.1 7.0 0.00 0.00 0.00 32 1013.0
20260831010523 93 144 5.2 6.1 0.00 0.00 0.00 32 1013.0
20260831010023 93 140 4.3 7.8 0.00 0.00 0.00 32 1013.0
20260831005523 94 144 5.2 7.8 0.00 0.00 0.00 32 1013.0
20260831005023 94 168 4.3 7.8 0.00 0.00 0.00 31 1013.0
20260831004523 95 164 6.1 8.7 0.00 0.00 0.00 31 1013.0
20260831004022 95 165 5.2 8.7 0.00 0.00 0.00 30 1013.0
20260831003523 95 168 6.1 10.4 0.00 0.00 0.00 30 1013.0
20260831003022 96 149 7.0 13.0 0.00 0.00 0.00 29 1012.9
20260831002523 96 151 7.0 13.0 0.00 0.00 0.00 29 1012.9
20260831002022 96 163 9.6 12.2 0.00 0.00 0.00 29 1012.9
20260831001522 96 169 10.4 12.2 0.00 0.00 0.00 29 1012.9
20260831001022 97 162 6.1 15.6 0.00 0.00 0.00 29 1013.0
20260831000522 97 190 7.8 15.6 0.00 0.00 0.00 29 1012.9
20260831000022 97 168 7.8 12.2 0.00 0.00 0.00 29 1012.9
20260830235522 97 156 9.6 12.2 0.00 0.00 0.00 29 1012.9
20260830235022 98 130 9.6 12.2 0.00 0.00 0.00 28 1012.9
20260830234521 98 181 6.1 11.3 0.00 0.00 0.00 28 1013.0
20260830234021 98 172 9.6 13.0 0.00 0.00 0.00 28 1012.9
20260830233522 98 134 8.7 14.8 0.00 0.00 0.00 28 1012.9
20260830233021 98 158 8.7 14.8 0.00 0.00 0.00 28 1012.9
20260830232521 98 202 7.0 13.9 0.00 0.00 0.00 28 1012.9
20260830232021 98 145 8.7 13.0 0.00 0.00 0.00 28 1012.8
20260830231021 99 171 13.0 13.0 0.00 0.00 0.00 26 1012.9
20260830230521 99 201 3.5 11.3 0.00 0.00 0.00 27 1013.0
20260830225521 99 190 7.8 13.9 0.00 0.00 0.00 26 1013.1
20260830225021 99 175 10.4 14.8 0.00 0.00 0.00 26 1013.1
20260830224521 99 199 7.8 14.8 0.00 0.00 0.00 26 1013.1
20260830224022 99 140 11.3 12.2 0.00 0.00 0.00 26 1013.0
20260830223523 99 194 7.0 12.2 0.00 0.00 0.00 27 1013.1
20260830222523 98 198 9.6 10.4 0.00 0.00 0.00 28 1013.0
20260830221520 99 149 9.6 14.8 0.00 0.00 0.00 28 1013.1
20260830221021 98 171 9.6 12.2 0.00 0.00 0.00 28 1013.1
20260830220520 99 145 7.8 13.9 0.00 0.00 0.00 27 1013.1
20260830220020 98 117 11.3 13.9 0.00 0.00 0.00 27 1013.1
20260830215520 99 187 5.2 14.8 0.00 0.00 0.00 27 1013.2
20260830215021 98 182 11.3 14.8 0.00 0.00 0.00 28 1013.2
20260830214520 97 183 4.3 13.0 0.00 0.00 0.00 29 1013.2
20260830213020 99 160 14.8 18.2 0.00 0.00 0.00 27 1013.1
20260830212520 99 151 11.3 18.2 0.00 0.00 0.00 28 1013.2
20260830212020 100 184 7.0 13.9 0.00 0.00 0.00 28 1013.3
20260830211519 99 204 10.4 16.5 0.00 0.00 0.00 28 1013.4
20260830210519 98 162 9.6 11.3 0.00 0.00 0.00 28 1013.5
20260830205520 99 158 4.3 13.0 0.00 0.00 0.00 28 1013.6
20260830205019 100 173 11.3 13.9 0.00 0.00 0.00 28 1013.6
20260830204519 98 111 8.7 13.9 0.00 0.00 0.00 29 1013.6
20260830204019 99 180 11.3 12.2 0.00 0.00 0.00 29 1013.7
20260830203520 98 189 4.3 15.6 0.00 0.00 0.00 29 1013.9
20260830203019 99 179 8.7 15.6 0.00 0.00 0.00 29 1013.9
20260830202019 99 225 7.8 12.2 0.00 0.00 0.00 29 1014.1
20260830201019 98 189 12.2 17.4 0.00 0.00 0.00 29 1014.2
20260830200519 99 189 7.0 13.9 0.00 0.00 0.00 30 1014.3
20260830200019 98 139 10.4 14.8 0.00 0.00 0.00 29 1014.3
20260830195520 98 144 11.3 14.8 0.00 0.00 0.00 30 1014.3
20260830194518 98 132 7.0 17.4 0.00 0.00 0.00 30 1014.6
20260830194018 99 146 13.0 17.4 0.00 0.00 0.00 30 1014.6
20260830193519 98 225 14.8 17.4 0.00 0.00 0.00 31 1014.6
20260830193019 98 202 7.0 15.6 0.00 0.00 0.00 31 1014.7
20260830192519 98 197 13.0 16.5 0.00 0.00 0.00 32 1014.7
20260830192018 98 199 11.3 16.5 0.00 0.00 0.00 32 1014.8
20260830191019 97 166 11.3 20.9 0.00 0.00 0.00 31 1014.8
20260830190018 97 208 13.0 17.4 0.00 0.00 0.00 34 1014.9
20260830185018 97 196 11.3 19.1 0.00 0.00 0.00 33 1015.0
20260830184518 96 132 7.8 19.1 0.00 0.00 0.00 34 1015.1
20260830184018 96 177 7.0 18.2 0.00 0.00 0.00 34 1015.0
20260830183018 96 196 11.3 19.1 0.00 0.00 0.00 33 1015.3
20260830182518 97 201 15.6 18.2 0.00 0.00 0.00 33 1015.4
20260830182048 97 195 11.3 19.1 0.00 0.00 0.00 33 1015.4
20260830181018 97 163 13.0 19.1 0.00 0.00 0.00 34 1015.6
20260830180517 97 186 11.3 19.1 0.00 0.00 0.00 36 1015.6
20260830175518 95 222 12.2 19.1 0.00 0.00 0.00 36 1015.8
20260830175018 95 200 16.5 19.1 0.00 0.00 0.00 36 1015.8
20260830174517 96 182 13.9 17.4 0.00 0.00 0.00 36 1015.9
20260830174017 96 211 16.5 17.4 0.00 0.00 0.00 36 1015.9
20260830173018 96 169 9.6 18.2 0.00 0.00 0.00 37 1016.1
20260830172518 96 176 15.6 20.9 0.00 0.00 0.00 37 1016.1
20260830172017 95 203 10.4 20.9 0.00 0.00 0.00 38 1016.3
20260830171517 95 183 13.9 15.6 0.00 0.00 0.00 38 1016.3
20260830171018 95 182 8.7 15.6 0.00 0.00 0.00 39 1016.4
20260830170517 95 220 11.3 15.6 0.00 0.00 0.00 38 1016.5
20260830170017 96 189 13.0 15.6 0.00 0.00 0.00 38 1016.5
20260830165517 96 217 15.6 15.6 0.00 0.00 0.00 39 1016.6
20260830165017 95 218 12.2 15.6 0.00 0.00 0.00 39 1016.6
20260830164547 95 181 15.6 16.5 0.00 0.00 0.00 39 1016.5
20260830164017 94 233 11.3 16.5 0.00 0.00 0.00 41 1016.7
20260830163517 94 204 16.5 16.5 0.00 0.00 0.00 40 1016.7
20260830163017 95 198 10.4 15.6 0.00 0.00 0.00 40 1016.7
20260830162517 93 199 7.8 15.6 0.00 0.00 0.00 43 1016.8
20260830162018 94 225 6.1 14.8 0.00 0.00 0.00 42 1016.8
20260830161517 94 200 9.6 11.3 0.00 0.00 0.00 43 1016.8
20260830161017 93 218 9.6 15.6 0.00 0.00 0.00 44 1016.8
20260830160516 93 216 13.0 15.6 0.00 0.00 0.00 45 1016.8
20260830160016 92 227 14.8 16.5 0.00 0.00 0.00 45 1016.9
20260830155017 92 209 13.0 13.0 0.00 0.00 0.00 47 1016.9
20260830154517 92 180 6.1 13.0 0.00 0.00 0.00 48 1016.9
20260830154016 92 207 10.4 13.0 0.00 0.00 0.00 49 1016.9
20260830152016 90 225 12.2 14.8 0.00 0.00 0.00 51 1016.9
20260830151516 90 203 12.2 13.9 0.00 0.00 0.00 51 1016.9
20260830151016 90 203 12.2 12.2 0.00 0.00 0.00 51 1016.9
20260830150516 90 225 11.3 12.2 0.00 0.00 0.00 52 1016.9
20260830150016 89 198 9.6 12.2 0.00 0.00 0.00 53 1017.0
20260830145516 88 211 5.2 13.0 0.00 0.00 0.00 54 1017.0
20260830145016 88 206 11.3 13.0 0.00 0.00 0.00 54 1017.0
20260830144516 88 209 13.0 13.0 0.00 0.00 0.00 54 1017.0
20260830144015 87 226 7.0 13.0 0.00 0.00 0.00 56 1017.0
20260830143017 86 212 13.9 13.9 0.00 0.00 0.00 57 1016.9
20260830141515 86 203 7.0 13.9 0.00 0.00 0.00 59 1016.9
20260830141015 86 210 7.8 11.3 0.00 0.00 0.00 59 1016.8
20260830140515 85 226 10.4 10.4 0.00 0.00 0.00 60 1016.9
20260830140015 85 201 7.0 9.6 0.00 0.00 0.00 61 1017.0
20260830135515 84 229 6.1 10.4 0.00 0.00 0.00 61 1017.0
20260830135015 84 217 7.8 10.4 0.00 0.00 0.00 62 1017.0
20260830134515 84 214 8.7 9.6 0.00 0.00 0.00 63 1017.0
20260830134015 83 205 7.0 7.0 0.00 0.00 0.00 64 1016.9
20260830133515 82 197 5.2 7.0 0.00 0.00 0.00 65 1016.9
20260830133014 82 192 6.1 7.0 0.00 0.00 0.00 66 1016.9
20260830131014 80 179 5.2 6.1 0.00 0.00 0.00 69 1016.8
20260830130514 79 208 3.5 6.1 0.00 0.00 0.00 69 1016.7
20260830130014 79 179 3.5 6.1 0.00 0.00 0.00 69 1016.7
20260830125514 78 156 4.3 6.1 0.00 0.00 0.00 70 1016.6
20260830125014 78 151 4.3 6.1 0.00 0.00 0.00 70 1016.5
20260830124514 78 175 4.3 6.1 0.00 0.00 0.00 71 1016.4
20260830124014 78 177 6.1 6.1 0.00 0.00 0.00 71 1016.4
20260830123514 77 166 5.2 6.1 0.00 0.00 0.00 72 1016.3
20260830123014 77 141 4.3 7.0 0.00 0.00 0.00 72 1016.3
20260830122013 77 151 6.1 7.0 0.00 0.00 0.00 72 1016.3
20260830121514 77 148 6.1 7.0 0.00 0.00 0.00 72 1016.2
20260830120513 77 138 4.3 6.1 0.00 0.00 0.00 71 1016.0
20260830120013 77 139 5.2 6.1 0.00 0.00 0.00 71 1015.9
20260830115013 77 148 3.5 7.0 0.00 0.00 0.00 70 1015.8
20260830114513 78 132 5.2 7.0 0.00 0.00 0.00 69 1015.7
20260830113513 78 138 5.2 6.1 0.00 0.00 0.00 68 1015.6
20260830112513 78 136 6.1 7.0 0.00 0.00 0.00 67 1015.5
20260830112014 78 121 6.1 7.0 0.00 0.00 0.00 66 1015.4
20260830111013 79 129 4.3 5.2 0.00 0.00 0.00 65 1015.3
20260830110013 80 147 4.3 6.1 0.00 0.00 0.00 64 1015.3
20260830105513 79 147 4.3 6.1 0.00 0.00 0.00 65 1015.3
20260830104513 79 122 4.3 6.1 0.00 0.00 0.00 65 1015.3
20260830104013 79 113 4.3 6.1 0.00 0.00 0.00 64 1015.3
20260830103513 79 109 6.1 6.1 0.00 0.00 0.00 64 1015.3
20260830103013 79 102 4.3 4.3 0.00 0.00 0.00 63 1015.3
20260830102513 79 98 4.3 5.2 0.00 0.00 0.00 63 1015.3
20260830102013 80 108 3.5 5.2 0.00 0.00 0.00 63 1015.3
20260830101013 80 116 5.2 5.2 0.00 0.00 0.00 62 1015.2
20260830100512 80 113 4.3 5.2 0.00 0.00 0.00 62 1015.2
20260830100012 80 127 4.3 5.2 0.00 0.00 0.00 62 1015.2
20260830095512 80 117 4.3 5.2 0.00 0.00 0.00 61 1015.2
20260830095012 80 127 4.3 5.2 0.00 0.00 0.00 61 1015.2
20260830094513 80 122 4.3 6.1 0.00 0.00 0.00 61 1015.2
20260830093513 80 123 5.2 6.1 0.00 0.00 0.00 60 1015.3
20260830093012 80 135 4.3 6.1 0.00 0.00 0.00 60 1015.2